#timestamp,LO_Frequency,Hit,StdDev 
1637071215.1,286046997.3,P
1637071235.9,286046996.9,P
1637071255.7,286046999.6,N
1637071275.5,286046996.8,N
1637071295.4,286046997.9,N
1637071315.2,286046996.9,Y
1637071335.1,286046998.3,P
1637071336.0,286046998.3,P
1637071355.8,286046999.6,N
1637071375.6,286046997.1,Y
1637071395.5,286046998.3,P
1637071415.3,286046999.5,P
1637071435.2,286046997.8,P
1637071455.9,286046997.8,Y
1637071475.7,286047001.2,P
1637071525.6,286047000.0,E
1637071535.5,286046999.7,N
1637071555.4,286047000.7,P
1637071575.2,286047000.1,N
1637071595.0,286047000.0,N
1637071595.9,286047000.0,N
1637071615.8,286047000.7,N
1637071635.6,286047002.7,Y
1637071655.5,286046999.7,P
1637071705.3,286047001.0,E
1637071715.2,286046998.9,N
1637071735.1,286046998.3,P
1637071736.0,286046998.3,P
1637071755.8,286046999.2,N
1637071775.7,286046998.4,Y
1637071795.5,286047000.6,P
1637071815.3,286046998.5,N
1637071835.2,286046999.1,N
1637071855.0,286046999.1,N
1637071855.9,286046999.1,N
1637071875.8,286046999.6,N
1637071895.6,286046996.8,Y
1637071915.4,286046998.3,P
1637071935.3,286046998.1,P
1637071955.1,286047000.7,N
1637071975.9,286046999.8,N
1637071995.7,286047002.6,N
1637072015.5,286047001.8,N
1637072035.4,286047001.9,N
1637072055.2,286047002.5,N
1637072075.0,286047000.7,N
1637072075.9,286047000.7,N
1637072095.8,286046998.8,N
1637072115.6,286046998.4,N
1637072135.5,286047000.7,N
1637072155.3,286047002.4,N
1637072175.1,286046998.4,N
1637072195.9,286047000.3,N
1637072215.7,286047000.9,N
1637072235.6,286046999.6,N
1637072255.4,286046999.3,N
1637072275.2,286046999.5,N
1637072295.1,286046998.4,N
1637072296.0,286046998.4,N
1637072315.8,286046998.7,N
1637072335.7,286046999.3,N
1637072355.5,286046998.2,N
1637072375.3,286046999.4,N
1637072395.2,286046998.2,N
1637072415.0,286046998.3,N
1637072415.9,286046998.3,N
1637072435.7,286046998.9,N
1637072455.6,286046999.6,N
1637072475.4,286046998.6,N
1637072495.3,286046996.6,N
1637072515.1,286046999.1,N
1637072535.8,286046999.6,N
1637072555.7,286046996.5,N
1637072575.5,286046998.7,N
1637072595.4,286047000.0,N
1637072615.2,286047002.4,N
1637072635.0,286047000.1,N
1637072635.9,286047000.1,N
1637072655.8,286047001.2,N
1637072675.6,286046998.8,N
1637072695.4,286047001.2,N
1637072715.3,286046998.5,N
1637072735.1,286047000.0,N
1637072755.9,286047000.4,N
1637072775.7,286046998.3,N
1637072795.5,286046998.4,N
1637072815.4,286046998.1,N
1637072835.2,286046998.1,N
1637072855.0,286046998.6,N
1637072855.9,286046998.6,N
1637072875.8,286046998.7,N
1637072895.6,286047001.0,N
1637072915.5,286046998.8,N
1637072935.3,286047002.8,N
1637072955.1,286047002.8,N
1637072975.9,286046998.9,N
1637072995.7,286046998.3,N
1637073015.5,286047001.2,N
1637073035.4,286046998.2,N
1637073055.2,286046998.3,N
1637073075.1,286046998.7,N
1637073076.0,286046998.7,N
1637073095.8,286046998.8,N
1637073115.6,286046998.4,N
1637073135.5,286046998.7,N
1637073155.3,286047000.4,N
1637073175.1,286047002.6,N
1637073195.9,286047000.6,N
1637073215.7,286046998.6,N
1637073235.6,286047000.6,N
1637073255.4,286046999.6,N
1637073275.2,286046999.2,N
1637073295.1,286046999.5,N
1637073296.0,286046999.5,N
1637073315.8,286046996.7,N
1637073335.6,286046995.3,Y
1637073355.5,286046997.9,P
1637073375.3,286046998.0,N
1637073395.2,286046996.7,P
1637073415.9,286047000.8,N
1637073435.7,286047000.5,N
1637073455.6,286047001.1,N
1637073475.4,286047002.8,N
1637073495.2,286046999.9,N
1637073515.1,286047000.5,N
1637073516.0,286047000.5,N
1637073535.8,286046999.9,N
1637073555.7,286047000.3,N
1637073575.5,286046998.6,N
1637073595.3,286046998.2,N
1637073615.2,286047000.5,N
1637073635.0,286047000.3,N
1637073635.9,286047000.3,N
1637073655.8,286047002.5,N
1637073675.6,286047002.6,N
1637073695.4,286047000.1,N
1637073715.3,286047002.3,N
1637073735.1,286046999.8,N
1637073755.8,286046999.7,N
1637073775.7,286046999.7,N
1637073795.5,286047002.1,N
1637073815.4,286047001.6,N
1637073835.2,286047002.0,N
1637073855.0,286047004.3,N
1637073855.9,286047004.3,N
1637073875.8,286047004.4,N
1637073895.6,286047001.8,N
1637073915.4,286047004.1,N
1637073935.3,286047005.2,N
1637073955.1,286047006.0,Y
1637073975.9,286047003.9,P
1637073995.7,286047003.2,N
1637074015.5,286047003.7,P
1637074035.4,286047003.4,Y
1637074055.2,286047001.5,P
1637074075.0,286047002.0,N
1637074075.9,286047002.0,P
1637074095.8,286046999.7,N
1637074115.6,286047002.3,N
1637074135.5,286047001.1,N
1637074155.3,286047000.1,N
1637074175.1,286047002.8,N
1637074195.9,286047001.9,N
1637074215.7,286047004.4,Y
1637074235.5,286047004.4,P
1637074255.4,286047002.6,N
1637074275.2,286046998.2,N
1637074295.1,286046999.1,N
1637074296.0,286046999.1,N
1637074315.8,286046998.6,N
1637074335.6,286046999.1,N
1637074355.5,286046996.5,N
1637074375.3,286046998.9,N
1637074395.1,286047000.6,N
1637074415.9,286047000.8,N
1637074435.7,286046998.7,N
1637074455.6,286047001.2,N
1637074475.4,286046998.5,N
1637074495.2,286047000.5,N
1637074515.1,286047000.6,N
1637074516.0,286047000.6,N
1637074535.8,286047000.0,N
1637074555.6,286047001.5,N
1637074575.5,286047001.3,N
1637074595.3,286047001.4,N
1637074615.2,286047003.7,N
1637074635.9,286047005.4,N
1637074655.7,286047011.9,Y
1637074675.6,286047006.9,P
1637074695.4,286047007.4,N
1637074715.2,286047006.3,N
1637074735.1,286047009.0,Y
1637074736.0,286047009.0,P
1637074755.8,286047004.2,N
1637074775.7,286047003.4,N
1637074795.5,286047004.1,N
